Wind_Speed
31 30 30 30 30 30 30 30 30 29 27 26 24 22 21 21 20 20 21 21 21 21 21 20 20 20 20 21 21 20 20 19 19 19 18 18 18 18 18 19 19 20 20 21
33 32 32 32 32 32 32 32 32 31 30 29 28 26 24 22 21 22 22 23 22 22 22 22 22 23 23 23 23 23 22 21 21 21 20 20 20 20 20 20 22 22 23 23
33 33 33 35 33 33 33 33 33 33 32 31 30 28 27 25 23 24 24 24 24 24 24 24 24 25 25 25 25 24 24 23 22 22 22 22 22 22 22 23 24 25 25 26
34 34 35 35 34 34 35 35 34 34 33 32 32 30 29 28 26 25 25 26 26 26 26 26 26 26 27 26 26 26 25 24 24 24 24 24 25 25 25 26 27 27 27 28
35 34 34 36 34 34 34 35 35 34 34 33 32 31 31 30 29 28 27 27 28 28 28 28 28 28 28 28 27 27 27 26 26 26 27 27 28 29 28 28 29 29 29 29
35 34 33 34 33 33 34 35 34 34 34 33 33 33 33 31 31 30 29 29 29 29 30 30 30 30 30 29 29 29 29 29 29 29 29 30 30 30 30 31 31 31 32 32
34 34 34 33 32 32 34 35 33 33 33 33 34 34 34 33 32 32 32 31 31 31 31 32 32 32 32 32 32 32 31 32 31 31 31 31 31 32 33 33 34 33 33 33
33 34 35 33 32 33 35 34 33 33 33 33 33 34 34 33 33 34 33 33 33 33 33 33 34 34 34 34 34 34 34 34 34 34 34 34 34 34 35 35 35 35 34 34
33 33 34 33 33 34 35 35 35 35 35 34 34 34 34 34 34 34 34 34 35 35 35 35 35 36 36 36 36 36 36 36 35 35 36 36 36 36 36 37 37 36 36 35
33 33 33 34 34 34 34 35 35 36 35 35 35 35 35 35 36 35 35 35 35 35 35 36 36 36 36 36 36 36 37 36 36 37 37 37 36 37 38 38 38 37 37 36
33 34 35 35 35 35 34 34 35 35 35 35 36 36 36 36 36 35 34 34 34 34 35 35 36 36 36 36 36 37 37 37 37 37 37 37 38 38 38 38 37 36 36 37
32 32 33 34 35 35 34 34 34 34 34 35 36 36 36 36 36 36 35 34 34 35 35 36 36 36 36 36 36 36 36 36 37 37 37 37 38 38 38 38 38 37 37 38
31 31 32 33 33 34 34 33 33 33 34 35 35 35 35 36 35 34 34 34 35 36 36 36 36 36 35 36 36 36 36 36 35 36 36 37 38 38 38 38 38 37 37 38
30 31 31 31 32 33 32 32 32 32 33 33 34 34 34 35 34 33 33 34 34 34 34 35 35 35 35 36 35 35 35 35 36 36 37 37 37 37 37 37 37 37 37 38
28 29 31 31 31 32 33 33 33 31 31 31 32 32 32 33 32 33 33 33 33 32 32 33 33 33 34 35 35 35 35 35 36 37 37 37 37 37 37 36 36 36 36 37
27 28 29 30 30 31 31 32 32 31 31 31 30 31 31 32 31 31 31 31 31 31 31 32 33 33 33 34 34 34 35 35 35 36 36 36 36 36 36 35 35 35 35 35
26 27 28 28 29 29 30 30 31 31 31 32 31 30 29 30 30 30 31 30 30 31 31 32 32 32 32 32 33 34 34 34 35 35 34 34 34 35 34 34 33 33 34 33
25 26 27 27 27 28 29 29 28 28 29 30 31 30 29 28 28 28 29 29 29 30 30 31 31 31 32 32 33 33 33 32 33 34 33 33 34 34 33 32 32 32 32 32
22 23 23 24 25 26 27 27 27 27 28 29 29 29 28 27 25 26 27 27 28 28 28 29 29 29 30 31 32 32 33 33 34 33 33 33 33 33 32 32 32 31 31 31
17 17 18 20 21 21 22 23 24 25 26 26 27 27 27 27 26 25 25 25 26 26 25 25 26 27 28 29 29 30 30 31 31 31 31 31 31 31 31 31 31 30 30 30
14 14 15 16 17 17 18 20 21 22 23 24 25 26 26 25 25 25 25 24 24 25 25 25 25 25 25 26 27 28 28 29 29 29 29 29 28 28 28 28 29 29 29 29
13 12 13 13 14 16 17 18 19 20 20 21 22 22 23 24 24 24 24 24 23 23 24 24 25 25 25 25 26 26 27 27 27 27 26 26 26 26 26 27 27 27 27 28
11 11 11 11 12 13 14 15 16 17 18 18 18 19 20 21 21 22 22 22 23 22 22 22 23 23 24 24 25 26 26 25 25 25 25 24 25 25 25 25 25 25 26 26
9 10 10 9 9 10 11 12 13 14 15 16 16 16 17 18 18 18 18 19 19 19 19 19 20 20 22 23 22 23 23 22 23 23 23 24 24 24 24 24 25 25 25 25
8 8 9 9 9 9 10 10 11 11 13 14 14 15 15 15 15 15 15 16 16 17 17 17 18 18 19 19 19 19 19 20 20 21 22 23 23 23 23 24 25 25 25 26
8 7 7 7 8 8 8 9 9 10 11 12 12 13 13 13 13 14 14 14 15 15 16 16 17 17 18 18 18 18 18 18 19 20 21 22 22 23 23 24 24 25 25 26
9 9 8 8 8 8 9 9 9 10 10 10 11 11 11 12 12 13 13 13 14 15 15 16 16 16 16 16 16 16 17 17 18 18 19 20 21 22 23 24 24 25 25 26
Wind_Direction
238 239 242 244 244 243 243 243 245 249 251 253 256 258 260 259 258 258 255 253 255 257 259 261 263 265 266 267 269 270 270 273 275 274 275 273 275 278 280 281 282 283 285 286
242 242 243 245 245 246 246 246 247 249 251 253 254 256 257 258 257 256 255 253 253 255 258 260 262 263 265 268 271 272 274 276 277 277 277 275 275 277 280 281 281 282 283 284
244 245 245 246 245 245 247 248 248 250 252 253 254 254 256 257 255 253 253 253 253 255 258 260 262 264 265 268 271 273 274 275 276 278 278 278 276 278 279 280 281 283 283 284
245 247 247 248 247 246 247 248 249 250 251 251 252 253 255 256 255 253 253 253 253 255 258 260 262 265 267 269 271 271 272 273 274 276 279 280 278 279 280 280 281 282 282 284
246 248 250 250 249 248 247 248 248 249 250 251 252 254 255 254 253 253 254 253 254 256 258 260 262 264 266 267 269 270 271 272 274 276 277 279 279 279 281 281 281 281 282 284
245 246 248 251 250 247 246 248 247 249 249 249 251 253 254 254 254 254 252 253 254 255 257 259 261 263 265 266 268 269 271 273 275 275 277 279 280 280 282 283 282 282 283 284
245 247 250 251 250 248 246 247 247 248 249 249 250 252 254 255 255 254 254 255 255 256 258 260 261 263 265 265 267 268 270 272 274 275 276 277 279 280 281 283 283 282 282 282
247 248 249 251 252 250 249 249 248 248 250 251 252 253 254 255 256 256 255 255 255 256 257 259 261 263 264 265 266 267 269 270 273 274 276 277 279 280 281 282 284 281 281 282
247 248 250 251 253 253 251 250 249 250 250 251 253 254 254 255 256 256 257 256 255 256 258 259 260 262 264 265 266 267 268 269 272 273 274 277 279 279 280 281 283 282 282 283
248 248 249 250 252 254 252 251 251 251 252 252 253 254 255 255 255 256 257 256 256 257 259 261 263 264 264 266 267 267 269 270 272 273 274 276 278 280 280 282 282 283 281 281
249 249 249 250 252 253 252 252 253 254 253 252 253 254 255 255 256 257 257 258 258 259 260 262 262 264 265 267 267 268 269 270 272 274 275 276 278 278 279 281 281 280 280 280
251 251 250 250 250 251 251 252 252 252 252 254 254 255 256 256 256 255 256 257 258 259 261 262 263 265 266 268 269 270 270 271 272 274 275 276 277 278 278 279 279 279 280 281
255 255 254 252 251 250 250 249 250 251 252 254 255 254 254 255 256 256 257 257 258 260 261 262 263 264 266 268 270 271 271 273 275 275 276 277 278 278 279 279 278 280 281 282
256 256 254 253 253 253 252 251 251 253 253 253 254 254 255 255 256 257 258 258 259 260 261 262 262 264 266 267 268 269 271 273 274 275 276 277 278 280 281 279 279 281 282 283
256 255 253 251 251 251 252 252 252 252 251 251 251 252 254 254 254 256 258 259 259 260 261 262 263 266 268 268 268 269 270 272 273 274 275 277 279 281 282 281 281 283 283 282
257 255 253 252 252 251 251 251 252 251 249 248 248 250 252 253 253 255 257 258 259 261 261 263 265 267 268 268 269 270 270 272 274 276 277 279 280 281 283 281 281 282 283 283
257 256 253 252 252 251 251 251 252 252 248 246 246 248 250 252 253 254 257 258 261 263 263 264 264 265 266 267 269 269 269 272 274 276 278 279 281 282 282 281 281 282 283 284
258 256 254 252 252 253 252 252 251 250 247 246 248 250 250 250 250 252 255 259 262 264 265 265 265 264 265 267 267 268 270 272 275 277 278 280 281 282 283 284 283 283 282 282
259 257 254 252 252 254 253 251 249 248 246 245 245 247 249 250 251 252 255 259 260 262 264 265 265 264 264 266 267 269 271 272 273 275 277 279 280 280 281 283 284 284 283 283
258 256 253 253 252 252 251 250 248 247 246 244 244 245 246 249 253 256 258 259 260 261 262 264 265 266 267 268 269 270 272 273 273 274 276 278 279 280 281 283 285 284 283 283
261 259 254 249 248 250 250 249 247 246 245 245 246 246 246 249 252 255 258 260 261 261 260 262 264 266 269 271 272 273 273 274 274 275 276 279 279 281 283 284 285 284 284 283
253 253 252 250 251 251 251 250 248 246 246 247 248 248 248 248 251 252 255 257 259 260 261 262 264 266 268 271 272 273 274 274 274 276 278 278 278 279 282 284 286 286 286 286
251 249 252 253 253 254 251 249 246 245 245 246 248 248 248 251 253 254 255 258 260 262 263 264 266 266 267 269 270 272 273 274 274 276 278 279 280 280 282 284 286 287 288 289
254 251 249 250 249 248 246 243 242 243 244 248 251 251 252 254 255 256 259 261 263 264 267 268 269 269 271 271 272 272 272 272 274 275 277 279 281 281 282 284 287 288 291 294
251 249 247 246 244 242 240 239 241 242 242 244 247 250 252 254 257 260 261 263 264 265 267 270 273 275 276 277 277 276 275 275 275 276 280 282 283 285 286 288 290 291 292 293
250 248 246 245 243 239 238 239 239 241 243 244 246 248 249 252 255 258 262 266 269 271 273 275 277 278 277 276 276 276 276 277 279 281 284 285 287 288 289 291 292 292 293 295
245 245 246 246 242 240 243 246 249 251 251 251 250 250 249 251 255 259 264 266 268 272 275 278 281 282 282 281 281 281 281 282 284 287 289 290 290 291 292 293 294 295 296 297
Height
5850 5853 5855 5857 5859 5861 5864 5866 5869 5872 5873 5875 5875 5876 5877 5878 5879 5879 5880 5881 5882 5882 5883 5883 5883 5883 5883 5883 5883 5882 5882 5882 5881 5881 5880 5880 5879 5878 5877 5876 5875 5874 5873 5872
5842 5844 5846 5848 5851 5853 5856 5858 5861 5863 5866 5867 5868 5869 5870 5872 5873 5873 5874 5875 5876 5877 5877 5878 5878 5878 5878 5878 5877 5877 5877 5877 5877 5876 5875 5875 5874 5873 5873 5871 5870 5869 5867 5866
5834 5836 5837 5840 5843 5845 5847 5850 5853 5855 5858 5859 5860 5861 5863 5864 5866 5867 5868 5869 5870 5870 5871 5872 5872 5872 5872 5872 5872 5872 5872 5871 5871 5870 5870 5869 5868 5868 5867 5865 5864 5862 5861 5860
5825 5827 5828 5833 5834 5836 5839 5841 5843 5846 5848 5850 5852 5854 5855 5857 5858 5860 5861 5862 5863 5864 5865 5865 5866 5866 5865 5865 5865 5865 5865 5865 5865 5864 5864 5863 5862 5861 5860 5858 5857 5856 5854 5853
5816 5818 5819 5822 5825 5827 5830 5832 5834 5837 5839 5841 5843 5845 5847 5848 5850 5852 5853 5854 5855 5856 5857 5858 5858 5858 5858 5858 5858 5858 5858 5858 5858 5857 5857 5856 5855 5854 5852 5851 5850 5848 5847 5846
5806 5809 5811 5814 5816 5818 5821 5822 5826 5828 5830 5833 5835 5837 5838 5840 5841 5843 5844 5845 5847 5848 5849 5850 5850 5851 5851 5851 5851 5851 5851 5850 5850 5850 5849 5848 5847 5846 5844 5843 5841 5840 5839 5838
5797 5799 5801 5804 5806 5809 5812 5814 5816 5819 5821 5824 5826 5828 5830 5831 5832 5833 5835 5836 5838 5839 5840 5841 5842 5842 5842 5843 5843 5843 5842 5842 5842 5841 5840 5839 5838 5837 5836 5834 5833 5831 5830 5829
5788 5790 5794 5795 5797 5799 5801 5804 5807 5809 5812 5814 5816 5818 5819 5821 5822 5823 5825 5827 5828 5829 5831 5831 5832 5833 5833 5833 5833 5833 5833 5833 5832 5832 5831 5830 5829 5828 5826 5825 5823 5821 5820 5819
5780 5783 5784 5786 5787 5789 5792 5794 5797 5799 5802 5803 5806 5807 5809 5810 5811 5813 5814 5816 5818 5819 5820 5821 5822 5822 5823 5823 5823 5823 5823 5823 5822 5822 5821 5820 5819 5818 5817 5815 5813 5811 5810 5808
5770 5773 5774 5776 5777 5779 5781 5784 5787 5789 5791 5793 5795 5797 5798 5800 5801 5802 5803 5805 5806 5808 5809 5810 5811 5812 5812 5813 5812 5813 5813 5813 5813 5812 5811 5810 5809 5808 5806 5805 5803 5801 5800 5798
5761 5763 5764 5766 5768 5770 5772 5774 5776 5778 5780 5782 5784 5786 5787 5788 5789 5791 5793 5794 5796 5797 5798 5800 5800 5801 5802 5802 5802 5802 5802 5802 5802 5801 5801 5800 5798 5797 5796 5794 5792 5791 5789 5788
5752 5753 5754 5756 5758 5759 5761 5763 5766 5768 5770 5771 5773 5775 5776 5777 5778 5780 5782 5784 5785 5786 5788 5789 5790 5791 5791 5791 5792 5791 5791 5791 5790 5790 5790 5789 5787 5786 5784 5783 5782 5780 5779 5777
5742 5743 5744 5746 5747 5749 5751 5753 5755 5757 5759 5761 5762 5764 5766 5767 5768 5770 5772 5773 5775 5776 5777 5778 5779 5780 5781 5781 5781 5781 5781 5780 5780 5779 5778 5777 5776 5775 5773 5772 5771 5769 5767 5765
5732 5733 5734 5736 5738 5739 5741 5743 5745 5747 5749 5750 5751 5753 5755 5757 5758 5760 5761 5763 5764 5766 5767 5767 5768 5769 5770 5770 5770 5770 5770 5770 5770 5769 5768 5766 5765 5763 5762 5760 5758 5757 5755 5754
5722 5723 5724 5726 5727 5729 5731 5733 5735 5737 5738 5740 5741 5743 5745 5747 5749 5750 5751 5753 5754 5755 5756 5757 5758 5759 5759 5759 5760 5760 5759 5759 5758 5757 5757 5755 5754 5753 5751 5749 5747 5745 5744 5742
5713 5713 5715 5716 5717 5719 5721 5723 5725 5727 5728 5730 5732 5734 5735 5737 5739 5741 5742 5743 5745 5746 5747 5747 5748 5748 5749 5749 5749 5749 5749 5749 5748 5747 5746 5745 5743 5742 5740 5738 5736 5734 5732 5731
5703 5704 5705 5706 5708 5710 5711 5713 5715 5717 5719 5721 5723 5725 5726 5728 5730 5732 5733 5734 5735 5736 5737 5738 5738 5738 5739 5739 5739 5739 5739 5739 5738 5737 5736 5734 5733 5731 5729 5727 5725 5724 5722 5720
5693 5694 5695 5696 5698 5700 5702 5704 5706 5708 5710 5712 5714 5717 5718 5720 5721 5723 5724 5725 5727 5727 5728 5728 5729 5729 5729 5729 5729 5729 5729 5728 5728 5727 5726 5725 5723 5722 5720 5717 5715 5713 5711 5709
5685 5685 5686 5687 5689 5691 5693 5694 5696 5699 5701 5704 5706 5708 5710 5712 5713 5715 5716 5717 5718 5719 5720 5719 5720 5720 5720 5720 5720 5720 5719 5719 5718 5717 5716 5715 5713 5712 5710 5708 5706 5704 5702 5700
5678 5678 5678 5680 5681 5683 5684 5686 5688 5690 5693 5695 5698 5700 5702 5704 5706 5707 5708 5709 5710 5710 5711 5711 5711 5712 5711 5711 5711 5711 5710 5710 5709 5708 5706 5705 5703 5702 5700 5698 5696 5694 5692 5690
5673 5673 5673 5674 5675 5677 5678 5680 5681 5683 5686 5688 5690 5692 5694 5697 5698 5700 5701 5702 5703 5703 5703 5704 5704 5704 5704 5703 5703 5702 5702 5701 5700 5699 5698 5696 5694 5693 5691 5689 5687 5685 5683 5681
5669 5669 5669 5669 5670 5671 5673 5674 5676 5678 5680 5682 5684 5686 5688 5690 5692 5693 5694 5695 5696 5696 5696 5696 5696 5696 5696 5696 5695 5694 5693 5693 5692 5691 5689 5688 5687 5685 5683 5681 5679 5677 5675 5673
5665 5665 5665 5666 5667 5667 5668 5670 5671 5673 5675 5677 5679 5681 5683 5684 5686 5687 5688 5689 5689 5689 5689 5689 5689 5689 5688 5688 5688 5687 5686 5685 5684 5683 5682 5681 5679 5677 5675 5674 5672 5670 5667 5665
5663 5663 5663 5663 5664 5664 5665 5666 5668 5670 5672 5673 5675 5676 5678 5679 5681 5682 5682 5683 5683 5683 5683 5683 5682 5682 5682 5681 5680 5679 5678 5677 5676 5675 5674 5673 5672 5670 5668 5666 5664 5662 5660 5658
5661 5661 5661 5662 5662 5662 5663 5664 5665 5667 5668 5670 5671 5672 5674 5675 5676 5677 5677 5678 5678 5678 5678 5677 5676 5676 5675 5674 5673 5672 5671 5670 5669 5669 5667 5666 5664 5663 5661 5659 5657 5655 5653 5650
5659 5659 5660 5660 5660 5661 5662 5663 5664 5665 5666 5667 5668 5669 5670 5671 5672 5672 5673 5673 5673 5673 5672 5672 5671 5670 5669 5668 5667 5667 5666 5665 5664 5663 5661 5660 5658 5656 5654 5652 5649 5647 5645 5642
5657 5657 5658 5658 5659 5660 5661 5661 5662 5663 5664 5664 5665 5666 5667 5667 5668 5668 5669 5669 5668 5668 5668 5667 5667 5666 5664 5663 5662 5661 5660 5659 5658 5656 5655 5653 5651 5649 5647 5645 5642 5640 5637 5634